Williamsport, PA

10:50 PM EDT on April 29, 2017 (GMT -0400)
Williamsport Rgnl

Weather History for KIPT - December, 2013

Change the Weather History Date:

Saturday, December 7, 2013

  Actual Average Record
Temperature  
Mean Temperature 31 °F 34 °F  
Max Temperature 37 °F 41 °F 69 °F (1998)
Min Temperature 24 °F 27 °F -5 °F (1926)
Degree Days  
Heating Degree Days 34 31  
Month to date heating degree days 194 210  
Since 1 July heating degree days 1437 1455  
Cooling Degree Days 0 0  
Month to date cooling degree days 0 0  
Year to date cooling degree days 863 702  
Moisture  
Dew Point 23 °F    
Average Humidity 70    
Maximum Humidity 92    
Minimum Humidity 47    
Precipitation  
Precipitation 0.01 in 0.11 in 1.55 in (2011)
Month to date precipitation 1.11 0.80  
Year to date precipitation 30.16 39.15  
Snow  
Snow 0.20 in 0.20 in 3.60 in (1969)
Month to date snowfall 1.6 1.2  
Since 1 July snowfall 3.8 3.0  
Snow Depth 0.00 in    
Sea Level Pressure  
Sea Level Pressure 30.37 in    
Wind  
Wind Speed 6 mph (WNW)    
Max Wind Speed 15 mph    
Max Gust Speed 20 mph    
Visibility 9 miles    
Events Snow    
T = Trace of Precipitation, MM = Missing Value Source: NWS Daily Summary

Daily Weather History Graph

Daily Weather History Graph

Search for Another Location

Airport or City:

Trip Planner

Search our weather history database for the weather conditions in past years. The results will help you decide how hot, cold, wet, or windy it might be!

Date:

Astronomy

Dec. 07, 2013 Rise Set
Actual Time 7:19 AM EST 4:38 PM EST
Civil Twilight 6:48 AM EST 5:09 PM EST
Nautical Twilight 6:14 AM EST 5:44 PM EST
Astronomical Twilight 5:40 AM EST 6:17 PM EST
Moon 11:01 AM EST (12/7) 10:20 PM EST (12/7)
Length of Visible Light 10h 20m
Length of Day
9h 18m
Waxing Crescent, 29% of the Moon is Illuminated
Dec 7
Waxing Crescent
Dec 9
First Quarter
Dec 17
Full
Dec 25
Last Quarter
Jan 1
New

Hourly Weather History & Observations

Time (EST) Temp. Windchill Dew Point Humidity Pressure Visibility Wind Dir Wind Speed Gust Speed Precip Events Conditions
12:43 AM 30.2 °F 25.4 °F 28.4 °F 93% 30.20 in 2.5 mi West 4.6 mph - 0.00 in Snow Light Snow
12:54 AM 30.9 °F 26.2 °F 28.9 °F 92% 30.22 in 2.0 mi WSW 4.6 mph - 0.01 in Snow Light Snow
1:16 AM 30.2 °F 25.4 °F 30.2 °F 100% 30.21 in 4.0 mi WSW 4.6 mph - 0.00 in Snow Light Snow
1:27 AM 30.2 °F - 30.2 °F 100% 30.21 in 7.0 mi Calm Calm - 0.00 in   Overcast
1:50 AM 30.2 °F 25.4 °F 30.2 °F 100% 30.22 in 6.0 mi West 4.6 mph - 0.00 in   Overcast
1:54 AM 32.0 °F 27.5 °F 30.0 °F 92% 30.24 in 6.0 mi West 4.6 mph - 0.00 in   Overcast
2:54 AM 32.0 °F 25.6 °F 28.0 °F 85% 30.24 in 10.0 mi West 6.9 mph - N/A   Overcast
3:54 AM 32.0 °F 26.4 °F 28.0 °F 85% 30.25 in 10.0 mi West 5.8 mph - N/A   Overcast
4:54 AM 30.9 °F - 28.0 °F 89% 30.27 in 10.0 mi Calm Calm - N/A   Overcast
5:54 AM 30.9 °F 25.2 °F 28.0 °F 89% 30.29 in 10.0 mi West 5.8 mph - N/A   Overcast
6:54 AM 30.9 °F 25.2 °F 27.0 °F 85% 30.32 in 10.0 mi West 5.8 mph - N/A   Overcast
7:54 AM 32.0 °F 28.7 °F 28.0 °F 85% 30.36 in 8.0 mi West 3.5 mph - N/A   Overcast
8:54 AM 32.0 °F 24.8 °F 28.0 °F 85% 30.38 in 10.0 mi West 8.1 mph - N/A   Overcast
9:54 AM 33.1 °F 25.5 °F 25.0 °F 72% 30.40 in 10.0 mi West 9.2 mph - N/A   Overcast
10:54 AM 34.0 °F 28.0 °F 26.1 °F 73% 30.40 in 10.0 mi WNW 6.9 mph - N/A   Overcast
11:02 AM 33.8 °F 26.4 °F 24.8 °F 70% 30.39 in 10.0 mi WNW 9.2 mph - N/A   Overcast
11:20 AM 33.8 °F 27.0 °F 24.8 °F 70% 30.38 in 10.0 mi NW 8.1 mph - N/A   Overcast
11:54 AM 33.1 °F 24.4 °F 21.9 °F 64% 30.40 in 10.0 mi NW 11.5 mph - N/A   Mostly Cloudy
12:54 PM 35.1 °F 25.5 °F 21.0 °F 57% 30.40 in 10.0 mi WNW 15.0 mph - N/A   Clear
1:54 PM 37.0 °F 30.4 °F 21.9 °F 54% 30.38 in 10.0 mi WNW 9.2 mph - N/A   Clear
2:54 PM 36.0 °F 28.0 °F 19.0 °F 50% 30.39 in 10.0 mi West 11.5 mph - N/A   Clear
3:54 PM 35.1 °F 27.9 °F 18.0 °F 50% 30.41 in 10.0 mi WNW 9.2 mph - N/A   Partly Cloudy
4:54 PM 32.0 °F 27.5 °F 18.0 °F 56% 30.43 in 10.0 mi WNW 4.6 mph - N/A   Clear
5:54 PM 30.0 °F 25.2 °F 19.0 °F 64% 30.45 in 10.0 mi West 4.6 mph - N/A   Clear
6:54 PM 30.0 °F 26.5 °F 16.0 °F 56% 30.49 in 10.0 mi NNW 3.5 mph - N/A   Clear
7:54 PM 28.9 °F 21.9 °F 14.0 °F 54% 30.52 in 10.0 mi NW 6.9 mph - N/A   Clear
8:54 PM 27.0 °F 18.7 °F 14.0 °F 58% 30.53 in 10.0 mi West 8.1 mph - N/A   Clear
9:54 PM 25.0 °F - 14.0 °F 63% 30.56 in 10.0 mi Calm Calm - N/A   Clear
10:54 PM 26.1 °F - 14.0 °F 60% 30.58 in 10.0 mi Calm Calm - N/A   Overcast
11:54 PM 24.1 °F 19.7 °F 12.0 °F 60% 30.58 in 10.0 mi West 3.5 mph - N/A   Clear